Other Public Products
Issued by NWS Grand Forks, ND

Home | Current Version | Previous Version | Graphics & Text | Print | Product List | Glossary On
Versions: 1 2 3 4 5 6 7 8 9 10 11 12 13 14 15 16 17 18 19 20 21 22 23 24 25 26 27 28 29 30 31 32 33 34 35 36 37 38 39 40 41 42 43 44 45 46 47 48 49 50
000
FPUS83 KFGF 261131
OPUFGF
PRAIRIE TO PINES WEATHER ROUNDUP
NATIONAL WEATHER SERVICE EASTERN NORTH DAKOTA/GRAND FORKS ND
500 AM CST FRI DEC 26 2014

 **SATELLITE DATA USED TO AUGMENT SKY COVER AT AUTOMATED STATIONS**
 *****  WEATHER ACROSS EASTERN NORTH DAKOTA  *****

CITY           SKY/WX    TMP DP  RH WIND       PRES   REMARKS
GRAND FORKS    CLOUDY    24  20  84 N7        30.09R WCI  16
GRAND FORKS AF CLOUDY    23  21  93 N6        30.10R WCI  16
GRAND CITY NWS   N/A     23 N/A N/A N5          N/A  WCI  17
BUXTON           N/A     24  22  91 N7          N/A  WCI  16
DEVILS LAKE    CLOUDY    21  16  79 N6        30.07S WCI  14
FARGO          MOCLDY    24  18  77 N16       30.07R WCI  11
WAHPETON ARPT  CLOUDY    25  21  86 N14       30.05R WCI  13
$$

 *****  WEATHER ACROSS CENTRAL AND WESTERN NORTH DAKOTA  *****

CITY           SKY/WX    TMP DP  RH WIND       PRES   REMARKS
JAMESTOWN      CLOUDY    21  18  88 N12       30.06R WCI   9
BISMARCK       CLOUDY    18  11  74 NW12      30.12R WCI   5
MINOT          CLOUDY     5   1  83 N6        30.13R WCI  -6
MINOT AFB      FLURRIES   8   6  92 N14       30.13R WCI  -9
GARRISON         N/A     10   6  84 N12       30.12R WCI  -5
WILLISTON      FLURRIES  14   9  80 W3        30.12R
DICKINSON      CLOUDY    17  10  74 NW12      30.06R WCI   4
HETTINGER      CLOUDY    18  13  80 NW12      30.07S WCI   5
$$

 *****  OTHER OBSERVATIONS NORTHEAST NORTH DAKOTA  *****

CITY           SKY/WX    TMP DP  RH WIND       PRES   REMARKS
WALHALLA         N/A     23  21  93 NW7       30.10R WCI  15
LANGDON        CLOUDY    18  16  93 NW13      30.06R WCI   4
CAVALIER       LGT SNOW  23  19  86 NW8       30.10R WCI  14
GRAFTON        NOT AVBL
CANDO          CLOUDY    18  16  93 N9        30.09R WCI   6
FORT TOTTEN    NOT AVBL
ROLLA          CLOUDY     5   3  92 N16       30.09R WCI -14
RUGBY          CLOUDY     7   3  85 NW16      30.12R WCI -11
 ***** THE ABOVE OBSERVATIONS ARE NON NWS ARE NOT QUALITY
        CONTROLLED AND MAY MIS-REPORT RAIN FOR SNOW...
$$

 *****  OTHER OBSERVATIONS SOUTHEAST NORTH DAKOTA *****

CITY           SKY/WX    TMP DP  RH WIND       PRES   REMARKS
COOPERSTOWN    NOT AVBL
VALLEY CITY    CLOUDY    23  23 100 N7        30.06S WCI  15
OAKES            N/A     23  23 100 N13       30.06R WCI  11
GWINNER        CLOUDY    27  27 100 N15       30.06R WCI  15
SHEYENNE NWR     N/A     24  20  83 N8        29.95S WCI  15
BUFFALO        NOT AVBL
WYNDMERE         N/A     25  21  86 N12         N/A  WCI  14
 ***** THE ABOVE OBSERVATIONS ARE NON NWS ARE NOT QUALITY
       CONTROLLED AND MAY MIS-REPORT RAIN FOR SNOW...
$$

  *****  WEATHER ACROSS NORTHERN MINNESOTA  *****

CITY           SKY/WX    TMP DP  RH WIND       PRES   REMARKS
FLAG ISLAND    CLOUDY    21  18  86 NW13      30.03R WCI   9
WARROAD        CLOUDY    19  18  93 N7        30.05S WCI  10
ROSEAU         MOCLDY    21  18  86 N5        30.05R WCI  15
HALLOCK        FLURRIES  21  18  86 N7        30.09R WCI  13
THF RVR FALLS  CLOUDY    23  19  86 NW9       30.05S WCI  13
HALSTAD          N/A     23  18  79 N14         N/A  WCI  11
FOSSTON        CLOUDY    21  19  93 N9        30.04R WCI  11
BAUDETTE       LGT SNOW  22  19  89 N12       30.01S FOG     WCI  10
WASKISH        CLOUDY    21  19  93 CALM      30.02R
CROOKSTON      CLOUDY    23  21  93 N10       30.09R WCI  12
$$
  *****  WEATHER ACROSS CENTRAL AND WEST MINNESOTA  *****

CITY           SKY/WX    TMP DP  RH WIND       PRES   REMARKS
BEMIDJI        CLOUDY    24  19  83 N6        30.00R WCI  17
PARK RAPIDS    CLOUDY    25  20  81 N10       29.98R WCI  15
WADENA         CLOUDY    25  21  86 N9        29.98R WCI  15
DETROIT LAKES  CLOUDY    27  23  86 N5        30.02R WCI  21
MOORHEAD       CLOUDY    25  23  93 N16       30.07R WCI  12
FERGUS FALLS   CLOUDY    25  19  80 N12       30.04R WCI  14
ELBOW LAKE     CLOUDY    26  22  87 N9        30.00R WCI  16
MORRIS MN      FLURRIES  27  25  93 N14       29.99R WCI  15
STAPLES        CLOUDY    25  21  86 N7        29.98R WCI  17
WHEATON        CLOUDY    23  21  93 N15G21    30.05R WCI  10
$$
  *****  WEATHER ELSEWHERE ACROSS MINNESOTA  *****

CITY           SKY/WX    TMP DP  RH WIND       PRES   REMARKS
DULUTH         CLOUDY    28  21  75 N10       29.93R WCI  19
INTRNTL FALLS  CLOUDY    25  22  88 NW8       29.98S WCI  16
ELY            CLOUDY    25  21  86 CALM      29.94S
CLOQUET        CLOUDY    28  23  80 N9        29.94R WCI  20
BRAINERD       CLOUDY    27  22  81 N8        29.96R WCI  19
HIBBING        CLOUDY    27  20  75 N5        29.95S WCI  22
ALEXANDRIA     CLOUDY    26  22  84 N13       29.96R WCI  15
SAINT CLOUD    CLOUDY    32  26  78 N12       29.93S WCI  23
MINNEAPOLIS    CLOUDY    32  29  88 N10       29.89R WCI  24
$$

  *****  WEATHER ACROSS SOUTH DAKOTA  *****

CITY           SKY/WX    TMP DP  RH WIND       PRES   REMARKS
SIOUX FALLS    CLOUDY    27  24  89 N15       29.94S WCI  15
BROOKINGS      NOT AVBL
WATERTOWN      LGT SNOW  23  20  88 N13       29.97R FOG     WCI  11
HURON          LGT SNOW  25  22  88 N14       30.03R FOG     WCI  13
SISSETON         N/A     24  22  91 N20       30.02R WCI  10
ABERDEEN       CLOUDY    25  21  85 N16       30.06R WCI  12
MITCHELL       CLOUDY    27  24  89 N14       30.02R WCI  16
PIERRE         CLOUDY    25  21  85 N12       30.06R WCI  14
MOBRIDGE       CLOUDY    24  20  84 N8        30.04R WCI  15
RAPID CITY     CLOUDY    20  16  84 N12       30.03S WCI   8
$$

  *****  SOME WEATHER IN NEARBY STATES *****

CITY           SKY/WX    TMP DP  RH WIND       PRES   REMARKS
GLASGOW MT     CLOUDY    18  13  80 SE10      30.04F WCI   6
GREAT FALLS MT CLOUDY    22  16  78 SW9       29.96R WCI  12
CHEYENNE WY    LGT SNOW  12   9  87 NE6       29.84S FOG     WCI   3
SCOTTSBLUFF NE CLOUDY    17  13  84 CALM      29.98R
OMAHA NE       CLOUDY    33  31  92 N18G26    29.88R WCI  22
DES MOINES IA  PTCLDY    37  30  75 S10       29.82S
DAVENPORT IA   MOCLDY    40  32  73 S20G26    29.91S
CHICAGO IL     PTCLDY    36  31  82 S13       29.98R
EAU CLAIRE WI  CLOUDY    30  27  88 NE3       29.87S
LA CROSSE WI   CLEAR     26  24  92 CALM      29.88R
$$

  *****  SOME NATIONAL WEATHER *****

CITY           SKY/WX    TMP DP  RH WIND       PRES   REMARKS
LA GUARDIA NY  CLEAR     41  29  62 W10       30.19R
RALEIGH NC     PTCLDY    30  27  88 CALM      30.30R
ATLANTA GA     MOCLDY    36  33  89 CALM      30.27R
NEW ORLEANS LA MOCLDY    49  45  86 E7        30.15S
OKLAHOMA CITY  CLOUDY    47  38  71 S15       29.84F
ALBUQUERQUE NM MOCLDY    31  30  96 S6        29.74F
SALT LAKE CITY MOCLDY    23  21  92 CALM      29.88R
LOS ANGELES CA CLEAR     48  22  35 E3        29.96R
BOISE ID       CLOUDY    28  23  81 NW8       30.09R WCI  20
SEATTLE WA     CLOUDY    39  36  89 E5        30.33R
$$

*** WEATHER ACROSS MANITOBA...SASKATCHEWAN AND ONTARIO ***
                ***ONTARIO***

CITY           SKY/WX    TMP DP  RH WIND       PRES   REMARKS
GERALDTON      CLOUDY    27  25  93 SW6       29.88R WCI  20
THUNDER BAY    CLOUDY    28  27  93 W3        29.96R
SIOUX LOOKOUT  FLURRIES  25  23  93 N5        29.95R WCI  19
TORONTO        PTCLDY    34  30  86 SW8       30.14F
BIG TROUT LK   FLURRIES  16  16 100 NW6       29.91R WCI   7
PICKLE LAKE    FLURRIES  21  16  79 NW7       29.92  WCI  13
DRYDEN         CLOUDY    23  21  93 NW8       29.98R WCI  14
KENORA         FLURRIES  19  18  93 NW7       30.01R WCI  10
$$
                *** MANITOBA***

CITY           SKY/WX    TMP DP  RH WIND       PRES   REMARKS
BRANDON        PTCLDY    -8 -11  84 W16       30.13R WCI -30
DAUPHIN        FLURRIES  -2  -8  78 W15       30.17S WCI -22
ISLAND LAKE    FLURRIES   7   1  78 W12       30.03R WCI  -9
PILOT MOUND      N/A      7   5  92 NW13        N/A  WCI  -9
THE PAS        CLEAR    -13 -17  84 W6        30.19R WCI -27
THOMPSON       CLEAR    -20 -26  76 SW2       30.10R
WINNIPEG       FLURRIES  14   9  79 N13       30.12R WCI   0
CHURCHILL      LGT SNOW  -6 -11  77 W15G21    30.00S BLWGSNOWWCI -27
GILLAM         LGT SNOW  -4  -9  77 W14G21    30.02R DRFTSNOWWCI -24
$$
                ***SASKATCHEWAN***

CITY           SKY/WX    TMP DP  RH WIND       PRES   REMARKS
ESTEVAN        FLURRIES   1  -2  85 NW10      30.10  WCI -14
KINDERSLEY     MOCLDY     5   3  92 SE3       30.08
LLOYDMINSTER   CLOUDY     7   5  92 S8        30.04F WCI  -6
PRINCE ALBERT  CLEAR    -22 -27  76 SW2       30.18S
REGINA         FLURRIES   0  -2  92 N7        30.14R WCI -13
YORKTON        CLOUDY    -8 -11  84 NW9       30.13S WCI -25



USA.gov is the U.S. government's official web portal to all federal, state and local government web resources and services.